Theta_e
323 324 324 322 321 321 322 321 321 321 320 318 318 318 317 317 317 318 318 318 318 318 317 316 316 316 316 316 316 314 314 313 312 313 312 311 314 315 314 314 313 312 312 313 312 310 310 311 310 309 308 309 309 308 308 308 308 308 309 308 307 307 307 307 307 306 306 306 305 305 304 302 301 301 301 302 303 304 305 305 306 306 306 307 307
323 323 323 323 322 322 322 322 321 321 320 319 318 319 319 319 318 318 318 319 318 318 318 318 317 317 317 316 317 316 316 315 314 314 314 312 313 315 314 314 314 314 313 313 313 311 309 310 310 311 310 308 307 307 307 308 308 308 307 307 306 306 306 306 306 305 305 305 304 303 302 300 299 299 299 300 301 301 302 303 303 304 305 305 306
322 323 323 324 323 322 322 322 321 321 320 320 320 320 320 320 319 319 319 319 319 318 317 318 318 318 318 318 317 317 317 317 316 316 315 314 313 314 314 314 314 314 313 313 314 313 312 310 310 312 311 310 307 306 307 308 308 308 308 307 306 306 305 304 303 303 302 302 301 300 298 298 297 298 298 298 298 298 298 298 299 300 301 302 303
322 323 323 323 323 323 322 321 320 320 320 320 320 320 321 321 320 319 319 319 319 318 318 317 317 318 318 318 318 318 318 318 318 317 317 317 316 315 315 314 314 314 314 313 314 314 314 312 312 311 310 311 310 307 307 307 308 308 308 308 307 305 302 301 300 300 298 298 297 297 296 297 297 297 298 297 298 297 297 297 297 297 298 299 299
322 322 322 323 323 323 322 321 321 321 320 320 320 320 321 320 320 320 320 320 319 319 319 318 317 317 318 318 318 318 318 318 318 318 318 318 318 317 316 315 314 314 314 314 314 314 314 314 313 312 310 310 310 309 307 307 307 308 308 308 307 304 301 301 300 298 297 296 296 297 297 298 298 298 298 298 297 297 297 298 298 298 298 298 298
322 322 322 322 323 323 323 322 321 321 321 320 320 320 320 319 320 320 320 320 319 319 319 319 318 318 317 317 318 318 318 319 318 318 319 319 319 319 318 317 316 315 314 314 314 314 314 314 313 313 312 311 310 309 308 307 307 307 307 307 306 303 302 302 301 299 298 298 298 299 299 299 298 298 298 297 297 298 298 298 299 299 298 299 298
322 322 322 322 321 322 323 322 322 322 321 320 320 320 319 319 319 319 319 319 319 319 319 319 319 319 319 318 317 317 318 318 319 319 319 319 319 319 319 319 318 317 316 315 315 314 314 314 314 313 313 313 311 310 310 309 308 307 307 306 305 306 305 303 301 300 300 300 300 300 299 299 298 298 297 297 297 297 298 299 299 298 297 298 298
322 322 322 321 321 321 322 321 321 321 321 320 319 320 319 318 319 319 319 318 318 319 319 318 319 319 319 318 317 317 318 319 319 319 319 319 319 320 320 320 319 318 317 317 316 316 315 315 314 314 313 314 313 312 311 310 309 308 307 307 307 309 307 304 302 301 301 301 301 300 300 299 298 297 297 297 297 298 298 298 299 298 298 297 297
321 321 321 321 321 321 320 320 320 319 320 319 319 320 319 318 318 319 318 319 319 319 319 319 318 318 318 319 318 319 319 320 320 320 320 319 319 319 319 319 319 318 317 318 318 317 316 316 315 314 314 314 314 313 312 311 310 309 308 307 307 306 305 303 303 302 301 301 301 300 299 298 298 298 297 297 298 298 298 298 298 298 298 297 297
321 320 319 318 318 318 318 319 319 318 319 319 319 320 319 318 319 319 319 320 320 321 320 319 319 319 320 320 320 320 321 321 321 320 320 320 319 319 319 319 319 318 318 318 318 318 318 316 316 315 314 314 314 313 313 311 310 308 307 306 305 304 303 303 303 302 302 301 301 300 299 298 298 298 297 297 298 297 297 297 297 298 297 297 297
315 314 312 311 312 313 314 315 315 314 315 315 315 316 316 316 317 317 318 318 318 319 320 320 320 320 321 320 320 320 320 320 320 320 320 320 320 320 319 319 319 319 319 319 319 319 318 318 317 316 315 314 314 313 312 311 309 308 306 305 305 304 303 302 302 302 302 301 301 300 299 298 298 297 297 297 297 297 297 297 297 296 296 296 296
309 308 308 307 308 309 310 310 310 309 310 310 310 310 310 311 311 311 312 312 313 314 315 316 316 316 317 317 317 317 318 318 319 319 320 320 320 320 320 320 320 319 319 319 319 319 318 318 317 316 315 314 314 313 311 310 309 307 305 305 305 304 303 302 302 302 301 301 301 299 298 298 297 297 297 297 297 296 296 296 296 295 294 294 294
307 307 307 307 307 307 307 307 308 308 309 308 308 309 308 309 308 308 309 309 309 310 310 311 311 311 311 311 312 312 313 314 316 318 319 319 319 320 320 319 320 320 320 319 319 319 318 318 317 315 314 314 313 312 310 309 307 306 305 305 304 304 303 302 302 302 301 301 300 298 298 297 297 297 297 296 296 296 295 295 295 294 293 293 293
307 307 307 307 307 307 307 307 307 308 309 308 308 308 307 307 308 308 309 309 309 309 310 310 310 310 310 310 310 310 310 311 312 313 316 318 319 320 320 319 319 320 320 319 319 318 317 316 315 314 313 313 312 311 309 307 306 305 305 304 303 302 302 302 302 301 300 299 298 298 298 297 297 297 296 296 295 295 294 294 294 293 293 293 293
306 307 307 307 307 307 307 307 307 308 309 309 309 308 307 307 308 308 307 308 309 309 309 309 309 309 309 310 310 310 310 310 311 311 312 315 318 319 319 319 319 319 319 318 317 317 316 315 314 313 312 310 309 309 307 306 306 305 304 303 302 302 302 301 301 300 299 298 298 298 297 297 296 296 296 295 295 294 293 293 292 292 292 292 291
306 306 306 306 306 307 307 307 307 308 308 308 308 308 308 308 308 308 308 309 309 309 309 309 309 309 309 309 309 310 309 309 310 310 310 311 314 317 318 319 319 319 318 317 316 315 315 315 313 311 309 308 308 307 306 305 304 304 303 302 302 302 301 300 300 299 299 298 298 297 297 296 296 295 295 294 294 293 292 291 291 291 291 290 290
305 306 306 306 306 306 306 306 306 307 307 307 307 307 307 307 308 307 308 308 309 309 309 308 308 308 308 308 309 309 309 310 309 310 310 310 312 315 317 318 318 317 316 315 314 313 313 312 310 309 307 307 306 305 305 304 303 303 303 303 302 301 300 299 299 298 297 297 296 296 295 295 294 294 293 292 292 292 291 291 291 291 290 289 289
305 305 306 306 306 306 306 306 306 306 306 306 306 306 306 306 307 307 307 308 308 308 308 308 308 307 307 308 309 309 309 310 310 310 310 311 313 315 317 316 315 313 312 311 310 310 309 308 307 307 306 305 305 304 303 303 303 303 302 301 301 300 299 298 297 297 296 295 294 294 293 293 293 292 292 292 292 292 291 291 291 291 290 289 289
305 306 306 306 306 306 306 306 306 306 306 305 306 306 305 306 306 306 307 307 308 308 309 309 308 308 307 307 308 309 309 309 310 310 310 311 313 314 315 314 312 310 309 308 307 306 306 305 305 305 305 304 304 303 303 303 302 301 300 299 299 298 297 297 296 295 294 294 293 293 293 292 292 292 292 292 291 291 291 291 291 291 290 290 290
305 305 305 306 306 305 305 305 305 305 305 305 305 305 305 305 304 305 305 305 306 307 309 309 309 308 308 308 309 309 309 309 309 310 310 311 312 312 312 311 310 307 306 305 305 304 304 303 303 303 303 303 302 302 301 301 300 299 298 297 297 296 296 295 294 294 293 293 293 292 292 292 292 291 291 291 291 291 290 291 291 291 291 290 290
305 305 306 305 305 304 304 304 304 305 304 304 305 304 304 304 305 305 305 305 306 307 308 309 309 309 309 309 309 309 309 309 309 309 310 310 310 310 309 309 308 307 305 304 303 302 301 301 300 299 299 299 299 299 298 298 297 297 296 296 295 294 294 293 293 292 292 292 292 291 291 291 290 290 290 290 290 290 290 290 291 291 291 291 290
304 305 305 304 304 304 303 304 304 304 304 304 304 304 304 304 305 305 306 306 306 307 308 308 309 309 309 309 309 308 308 309 309 309 309 309 308 307 307 307 306 306 304 302 301 300 299 298 298 297 297 297 297 297 297 296 295 295 294 294 293 293 293 293 292 292 292 291 291 290 290 290 290 289 289 289 289 290 290 290 290 290 290 290 290
303 304 304 304 304 304 303 304 304 304 304 304 303 304 304 304 305 305 305 305 305 306 307 308 308 308 308 308 308 308 308 308 308 308 308 307 306 305 305 305 304 303 303 301 299 298 297 297 297 297 297 297 296 296 295 295 294 294 293 293 293 293 293 292 292 291 291 290 290 290 289 289 289 289 290 290 290 290 290 290 290 290 290 290 290
302 303 303 303 304 304 304 304 304 303 304 304 304 304 304 304 305 305 304 304 304 304 305 306 307 307 307 307 306 306 306 306 306 306 305 305 304 304 303 303 301 300 300 299 297 297 296 296 296 296 295 295 295 294 294 293 293 293 293 293 292 292 291 291 290 290 290 290 290 289 289 289 289 289 289 289 289 289 289 289 289 290 290 289 289
303 303 303 303 303 304 304 304 304 304 304 304 304 304 304 305 304 304 304 303 303 303 304 304 305 306 306 305 305 304 303 303 303 303 303 303 303 302 301 300 298 297 298 297 296 296 296 295 295 294 294 294 293 293 293 292 292 292 292 291 291 291 290 290 290 290 289 289 289 289 289 289 289 289 289 289 289 289 288 288 289 289 289 289 289
302 302 302 302 302 303 303 304 304 304 304 304 304 304 304 304 303 303 303 303 303 303 303 303 303 304 304 304 303 302 300 300 300 300 300 300 300 299 299 298 297 296 297 296 295 295 294 294 293 293 292 292 292 292 292 291 291 291 291 290 290 290 289 289 289 289 289 289 289 288 288 288 288 288 288 288 288 287 287 287 288 288 288 288 288
301 302 302 302 302 303 303 303 303 303 303 303 303 303 303 303 303 303 303 303 303 303 303 303 303 303 303 303 301 299 298 297 298 298 298 297 297 296 296 296 296 296 296 295 294 293 293 292 292 292 292 292 292 291 291 290 290 290 289 289 289 288 288 288 288 288 288 288 288 288 287 287 287 287 287 287 286 286 286 286 287 287 287 287 287
301 301 302 302 303 303 303 303 303 303 303 303 303 303 303 302 303 303 303 303 303 303 304 304 304 304 304 302 300 297 296 296 297 297 297 296 296 295 295 296 296 295 294 293 292 292 292 292 292 292 291 291 291 290 290 289 289 288 288 288 288 288 288 288 287 287 287 287 287 287 287 286 286 285 286 286 286 285 285 285 286 286 286 286 287
301 302 302 302 302 302 302 302 302 302 302 302 302 302 302 302 302 302 302 302 303 303 304 304 304 304 304 304 301 298 296 297 297 296 295 296 295 295 296 295 294 293 292 292 292 292 292 292 291 291 291 290 289 289 288 288 288 288 288 288 287 287 287 287 287 287 286 286 286 286 286 285 285 285 285 286 285 285 285 285 285 286 286 286 287
302 302 302 302 302 302 302 302 302 302 302 302 301 301 301 301 301 302 302 302 302 303 303 303 303 303 304 304 303 301 301 300 297 294 294 295 295 295 295 294 292 292 292 292 292 292 292 291 291 290 290 289 289 288 288 288 288 287 287 287 287 287 287 286 286 285 285 285 285 285 285 285 285 285 286 286 286 286 286 286 286 286 286 287 287
302 302 302 302 302 302 302 302 302 301 301 300 300 299 299 299 299 300 300 301 301 302 302 303 303 304 304 304 303 301 301 299 296 294 294 295 295 294 293 292 292 292 292 292 292 292 291 291 290 289 289 288 288 288 288 287 287 287 287 287 287 287 286 286 285 285 285 285 285 285 285 285 286 286 286 286 286 286 286 286 286 287 287 287 287
302 302 302 302 301 301 301 300 300 299 299 298 298 298 298 298 298 298 298 299 300 301 302 302 303 305 304 303 301 300 299 296 295 294 295 294 293 292 292 292 292 292 292 292 292 291 290 290 289 289 288 288 288 288 287 287 287 287 287 287 287 286 286 286 286 285 285 285 285 285 286 286 286 286 286 286 286 286 287 287 287 287 287 287 287
301 301 301 301 300 299 299 298 298 298 297 297 297 297 297 297 297 297 297 298 300 301 302 303 304 305 304 302 301 300 298 295 294 295 294 293 292 292 292 292 292 292 292 292 291 290 290 290 289 288 288 288 287 287 287 288 287 287 287 287 287 287 287 286 286 286 286 286 286 286 286 286 286 286 286 286 287 287 287 287 287 287 287 287 287
300 300 299 299 298 297 297 297 297 297 297 297 296 296 296 296 297 297 297 298 299 300 300 301 301 301 301 300 299 298 296 294 294 294 293 292 292 292 292 292 292 292 292 291 291 290 290 289 288 288 287 287 288 288 287 287 287 287 287 287 287 287 287 287 287 286 286 286 286 286 286 286 286 286 286 286 287 287 287 287 287 287 287 287 287
299 298 297 297 296 296 296 296 296 296 296 296 296 296 296 296 296 296 297 298 297 296 296 296 297 298 298 297 296 295 294 293 292 292 291 292 292 292 292 292 292 291 291 291 290 290 289 289 288 287 287 288 288 287 287 286 286 286 287 287 287 286 286 287 287 287 287 286 286 286 286 286 286 286 286 287 286 287 287 287 287 287 287 287 287
297 296 296 295 295 295 295 294 295 295 295 295 295 296 296 296 295 295 295 296 296 294 293 293 294 294 294 294 293 292 291 291 291 291 292 292 292 292 292 292 291 291 291 290 290 289 289 288 288 287 288 287 287 286 286 286 286 286 286 286 286 286 286 287 287 287 287 286 286 286 286 286 286 286 286 286 286 286 287 287 287 287 287 287 287
296 295 295 294 294 294 294 294 294 293 294 294 295 295 295 295 294 294 294 293 293 292 291 291 291 291 291 291 291 291 291 291 292 292 293 293 293 293 293 292 291 291 290 290 289 289 288 288 287 288 287 287 286 286 286 286 286 286 286 285 286 286 287 287 287 287 287 286 286 286 286 286 286 287 286 286 286 286 286 287 287 287 287 287 287
294 294 294 294 293 293 293 293 292 292 293 293 293 293 293 293 293 293 292 291 291 290 290 290 290 290 290 290 291 292 292 293 293 293 293 293 292 292 292 292 291 291 290 289 289 288 288 287 287 287 287 286 287 287 287 287 287 286 285 285 286 287 287 287 288 288 287 286 286 286 286 286 287 286 286 286 286 286 287 287 287 287 287 287 287
294 294 294 294 293 293 293 293 292 292 292 291 292 292 292 292 292 292 291 291 291 291 290 290 290 290 291 291 292 292 293 293 293 293 293 292 292 292 291 291 291 290 290 289 288 288 287 287 287 287 287 287 287 287 287 287 286 285 284 284 285 287 288 288 288 288 287 286 286 286 286 287 287 287 287 287 286 287 287 287 287 287 287 287 287
294 295 294 294 293 293 293 294 293 292 291 291 291 291 292 292 292 292 292 291 291 291 291 291 291 291 291 292 292 293 293 293 293 293 292 292 291 291 291 291 290 290 289 289 288 288 287 287 287 287 287 287 288 288 288 287 285 284 283 283 285 286 288 288 288 288 287 286 286 286 286 287 287 287 287 287 287 287 287 287 287 287 287 287 287
295 295 295 294 294 294 293 294 294 294 293 292 291 291 291 292 291 292 292 291 291 291 291 291 291 291 292 292 293 293 293 292 292 292 292 291 291 291 290 290 290 289 289 288 288 287 287 287 287 287 288 288 288 288 288 287 285 283 283 284 285 287 288 288 288 287 287 286 286 286 286 287 287 287 287 287 287 287 287 287 288 288 288 288 288
295 295 294 294 293 293 293 294 294 294 294 293 292 292 291 291 291 291 291 291 291 291 291 292 292 292 292 292 292 291 292 292 292 292 291 291 291 290 290 289 289 288 288 288 287 287 287 288 288 288 288 288 288 288 287 286 284 283 283 285 286 287 288 288 288 288 287 287 287 287 287 287 287 287 287 287 287 288 288 288 288 288 288 288 288
295 295 294 294 294 294 294 295 295 295 294 294 293 293 292 292 292 292 292 291 291 292 292 292 292 292 292 291 291 291 292 292 292 292 291 291 290 290 289 289 288 288 288 287 287 287 288 288 288 288 288 288 288 288 287 285 284 283 283 285 287 288 288 288 288 288 288 288 288 288 287 287 287 287 288 288 288 288 288 288 288 288 288 288 288
296 295 295 295 294 294 295 295 295 295 295 294 294 294 293 294 294 293 293 292 292 292 292 292 292 292 292 291 292 292 292 292 292 291 291 290 290 289 289 288 288 288 288 287 287 287 288 288 288 288 288 288 288 287 286 284 283 283 283 285 286 288 288 288 288 288 289 289 289 288 288 288 288 287 288 288 288 288 288 288 288 288 288 289 289
295 295 295 295 295 294 294 294 295 295 295 295 295 294 294 294 294 293 293 292 292 291 292 292 292 292 292 291 292 292 292 291 291 290 290 289 289 288 288 287 287 287 287 287 287 287 288 288 288 288 288 288 287 286 285 284 283 283 283 285 286 287 288 288 288 289 290 290 289 289 288 288 288 288 288 288 288 288 288 288 289 289 289 289 289
296 295 296 296 295 295 294 294 294 295 294 294 294 294 294 294 293 292 292 292 291 291 291 291 291 291 292 292 292 292 291 291 290 289 289 288 288 288 287 287 287 287 287 287 287 287 288 288 288 288 288 288 286 285 284 284 283 283 284 285 286 287 288 289 289 290 290 290 290 289 289 288 288 288 288 288 288 289 289 289 289 289 289 289 289
296 296 296 296 295 295 294 294 294 294 293 293 292 292 292 292 292 292 292 291 291 291 291 291 291 291 291 291 291 291 290 290 289 289 288 288 287 287 287 287 287 287 287 287 287 287 288 288 288 288 288 287 285 285 285 284 283 283 284 285 286 288 289 289 290 290 290 290 290 289 289 289 289 289 288 289 289 289 289 289 289 290 290 289 290
296 296 296 295 295 294 294 293 293 293 292 292 291 291 291 291 291 291 291 291 291 291 291 291 291 291 291 290 290 289 289 289 288 288 287 287 286 286 286 286 286 287 287 287 287 287 288 288 288 288 288 286 285 285 285 285 284 283 284 285 286 288 289 290 290 290 290 290 290 289 289 289 289 289 289 289 289 289 289 289 290 290 290 290 290
295 295 295 294 294 293 293 292 292 292 291 291 291 290 290 290 290 290 290 290 290 290 290 290 290 290 290 289 289 288 288 287 287 287 287 286 285 285 285 286 286 286 287 287 287 287 287 288 288 288 287 286 285 285 285 285 284 283 284 284 286 288 289 290 290 290 290 290 289 289 289 289 289 289 289 289 289 289 289 290 290 290 290 290 290
294 294 293 293 292 292 291 291 291 291 290 290 290 290 290 290 290 289 289 289 289 289 289 289 289 288 288 288 287 287 287 286 286 286 285 285 284 284 284 285 286 286 286 286 287 287 287 288 288 287 286 286 285 285 285 286 285 284 284 284 285 287 288 290 290 290 290 290 290 289 289 289 289 289 289 289 289 289 289 290 290 290 290 290 290
293 292 292 292 291 291 291 291 290 290 290 290 290 289 289 289 289 288 288 288 288 287 287 287 287 287 287 286 286 286 286 285 285 285 285 284 283 283 284 285 285 285 286 286 286 287 287 288 287 287 286 286 285 285 285 286 285 284 284 284 285 286 288 289 290 290 290 290 290 289 289 289 289 289 289 289 289 289 289 290 290 290 290 290 290
Wind_Speed
29 27 23 21 20 20 22 27 30 29 26 23 22 19 17 21 23 21 20 20 18 16 15 13 12 12 11 11 10 10 10 11 11 10 8 7 6 6 5 4 4 3 4 3 3 2 2 2 3 3 3 3 3 4 5 6 7 7 7 8 10 10 10 10 7 5 7 10 12 14 17 18 18 18 18 16 15 13 12 12 12 12 12 11 10
26 23 18 18 19 18 19 24 27 27 25 22 20 18 16 21 25 24 24 23 21 20 17 15 14 13 14 14 12 12 11 11 11 11 9 9 8 7 7 6 6 5 5 5 4 4 4 4 3 2 2 1 1 2 2 3 4 5 7 7 9 10 11 11 10 8 10 13 14 16 18 19 19 18 18 18 17 15 14 13 13 13 12 11 11
22 18 14 14 17 18 18 21 24 25 23 19 17 17 18 20 22 22 24 23 22 22 20 18 17 15 15 16 15 14 13 12 12 12 11 10 10 9 9 9 8 8 8 7 6 6 6 5 5 4 3 2 1 0 1 1 2 3 5 6 7 9 10 11 11 10 11 13 15 17 19 19 18 18 18 18 17 17 16 15 15 14 13 13 12
20 16 14 14 15 17 17 17 19 21 21 20 18 17 16 17 18 18 20 23 21 20 21 22 22 20 18 19 19 17 16 15 14 13 13 12 11 11 11 11 11 11 10 9 8 8 8 7 7 6 5 5 3 1 1 1 1 1 2 4 6 8 9 10 11 10 11 12 14 16 17 17 17 18 19 19 18 18 18 17 17 16 15 15 14
20 16 14 14 14 14 15 16 17 17 18 19 19 17 12 13 15 14 15 19 21 19 20 22 22 21 21 22 23 21 19 18 16 15 16 15 14 14 14 14 14 13 12 12 11 11 11 10 9 8 7 7 6 4 3 3 2 1 2 3 4 5 7 9 11 11 11 12 13 14 15 16 16 17 19 21 22 21 20 19 19 18 18 17 16
19 18 16 15 14 13 14 15 15 14 13 13 14 15 11 9 13 13 11 13 16 17 18 19 20 20 22 25 27 26 22 19 17 16 18 19 17 17 17 17 17 16 15 14 14 13 13 12 11 11 10 9 8 7 6 5 4 3 3 2 2 4 6 9 11 11 11 11 11 12 14 16 17 18 20 21 22 22 23 23 22 22 23 23 23
16 17 16 16 15 14 14 14 12 11 10 8 11 14 13 12 14 16 16 15 16 18 17 16 16 17 18 22 28 30 26 22 19 17 19 21 21 20 20 20 20 19 18 17 17 16 16 15 14 14 13 12 11 10 9 8 6 5 4 3 2 4 7 9 10 11 11 11 11 12 14 15 17 19 19 21 20 20 23 25 26 27 28 28 28
14 15 15 14 14 13 12 10 9 10 10 8 9 11 11 12 14 17 19 18 17 17 16 16 16 15 15 20 26 28 26 22 20 19 20 21 21 21 21 21 21 20 20 19 20 20 19 18 18 17 16 15 14 14 13 12 9 7 7 5 4 6 7 8 9 9 9 10 10 12 14 16 18 19 21 22 21 21 21 21 23 27 30 30 29
11 11 10 9 8 8 8 6 5 7 10 8 9 11 13 16 19 20 19 16 13 13 13 14 14 13 14 18 22 23 21 20 20 20 21 21 21 21 21 21 21 20 20 21 22 22 22 21 21 20 19 18 17 17 17 16 13 10 9 8 7 6 6 5 6 7 7 8 9 11 14 16 17 18 20 20 19 19 20 20 21 24 26 30 30
7 6 4 3 4 4 5 6 6 7 8 7 8 10 13 16 16 13 11 8 8 8 9 10 11 12 13 16 18 18 18 18 18 18 19 20 21 21 21 21 21 21 21 21 22 23 23 23 23 22 22 21 20 20 20 18 14 11 9 8 7 6 5 5 5 5 6 7 8 9 12 15 16 16 16 16 16 18 21 21 23 24 24 26 27
8 7 6 5 4 4 4 4 5 5 5 5 6 6 6 7 6 4 3 2 2 3 4 6 9 10 11 11 11 11 12 13 13 14 15 16 17 19 19 20 20 20 20 20 21 21 22 23 24 24 24 23 22 22 21 18 15 12 9 8 7 7 7 7 6 5 5 5 6 8 9 13 16 16 15 16 17 18 20 20 20 22 21 19 19
10 9 8 7 6 6 5 4 4 5 6 7 8 8 8 8 7 7 6 5 5 4 3 2 2 2 2 3 4 6 7 9 10 11 12 13 14 16 17 18 18 18 18 18 18 19 20 21 23 24 24 24 24 24 22 18 16 13 10 8 7 8 9 9 9 8 7 7 7 8 8 10 13 15 15 16 17 18 19 19 19 19 19 17 17
9 8 8 7 7 6 6 5 5 6 7 7 7 8 8 7 7 7 6 6 5 5 5 5 4 3 3 3 4 5 5 7 8 10 11 12 12 13 14 15 15 15 15 16 16 17 18 19 20 22 23 24 25 23 21 18 15 12 9 7 7 8 9 9 9 9 8 7 7 8 9 10 11 13 13 13 15 17 18 20 21 20 21 21 22
7 7 6 6 6 5 4 4 5 5 6 6 5 5 5 5 5 5 5 5 4 4 4 3 3 4 5 5 6 7 7 8 9 9 10 11 12 13 12 12 13 13 13 13 15 16 17 18 18 19 21 23 23 21 20 16 13 9 8 7 7 7 8 8 8 7 7 7 8 9 10 11 11 12 13 13 14 17 18 20 22 23 25 26 27
8 6 5 5 5 4 3 2 2 2 3 3 2 2 3 3 3 4 4 4 3 3 3 4 5 6 7 7 8 9 9 9 10 11 10 11 12 13 13 12 11 12 11 12 13 14 16 16 16 17 19 19 19 18 17 13 10 9 8 7 6 7 8 8 9 9 9 10 11 11 11 12 12 12 14 15 17 18 20 21 22 23 26 27 27
10 8 8 7 6 5 4 4 4 4 3 2 2 2 3 4 4 5 5 4 4 4 4 5 6 7 8 10 11 12 12 12 12 11 11 11 11 12 13 13 12 11 11 12 13 13 14 14 14 15 16 16 16 14 13 11 11 10 8 6 7 8 8 9 10 11 12 12 12 13 13 13 14 15 16 18 19 19 20 20 20 20 21 20 21
10 9 8 8 7 7 6 5 6 6 4 3 4 4 5 5 6 6 6 6 5 5 6 6 7 9 10 11 12 13 13 13 13 12 12 11 11 11 12 12 11 11 11 11 11 11 10 10 11 14 15 15 14 13 12 11 10 8 7 7 8 9 9 10 11 12 13 14 14 14 14 14 16 17 17 17 17 16 16 17 17 17 17 16 14
6 6 5 5 5 5 4 4 4 4 4 4 4 5 5 6 6 7 7 7 8 8 8 8 9 10 11 12 13 12 12 12 12 12 12 11 11 9 9 10 9 9 8 7 6 6 7 8 11 13 14 13 12 11 9 8 8 7 7 7 8 9 9 10 12 13 13 14 14 14 14 14 15 16 15 15 14 13 14 16 16 17 18 16 15
3 2 1 3 3 2 1 1 1 2 3 3 4 5 5 6 7 8 8 9 9 9 9 9 10 11 12 13 13 12 12 12 11 11 10 10 10 7 6 8 8 8 8 8 8 8 9 10 10 11 11 10 9 7 6 6 6 6 6 7 8 9 11 12 14 15 15 15 15 15 15 15 15 15 15 15 14 13 14 16 17 19 20 20 19
9 8 5 4 4 4 3 2 1 1 1 2 3 4 6 8 9 10 10 10 10 10 9 10 10 11 12 13 12 12 12 12 12 10 8 8 7 5 6 8 10 11 11 11 11 10 10 10 9 8 7 7 5 5 5 5 5 5 6 8 9 11 12 13 13 14 14 14 14 15 15 14 14 15 15 15 15 15 15 16 16 18 21 22 22
13 11 9 8 7 6 6 5 4 3 2 3 3 4 6 8 9 10 10 10 9 8 8 9 10 11 10 10 10 10 11 11 11 10 8 6 5 4 6 9 11 12 12 11 10 9 9 8 7 6 4 3 3 3 4 4 5 6 7 9 9 10 11 11 11 12 12 13 13 13 13 14 14 15 16 16 16 16 16 15 15 17 19 21 23
14 13 11 10 9 9 8 7 6 5 5 5 5 5 6 7 8 8 7 7 6 6 8 9 10 10 10 10 10 9 9 9 8 7 7 5 3 3 6 8 10 10 10 10 9 9 8 7 6 5 3 2 2 3 4 5 6 7 7 8 8 8 9 9 10 11 11 12 13 14 15 16 17 18 18 17 17 16 16 17 17 18 19 21 23
14 14 13 11 10 10 9 8 8 8 7 7 6 6 7 7 7 6 6 5 5 5 7 9 10 11 11 10 10 9 8 7 6 5 4 4 3 4 5 7 8 9 9 9 9 8 7 5 4 3 3 3 4 5 6 6 6 6 6 7 7 8 9 10 10 11 12 14 15 17 18 18 19 20 19 19 18 18 19 20 20 21 22 23 24
14 14 13 12 11 11 10 9 9 9 9 9 9 9 8 8 8 7 7 7 6 6 7 9 11 12 12 12 11 10 9 8 7 6 5 5 5 6 6 7 8 7 7 8 8 7 5 4 2 2 3 3 4 4 3 3 4 4 4 5 6 7 8 10 11 12 14 15 16 18 18 19 19 20 20 20 20 21 21 22 23 24 25 26 26
14 14 13 12 11 10 10 9 9 9 9 10 10 10 10 11 10 10 10 10 9 9 9 10 12 14 14 14 13 12 11 10 9 9 8 8 8 8 8 8 7 6 5 6 6 5 4 2 2 1 0 1 1 1 2 2 3 3 3 4 6 7 9 10 11 13 14 16 17 18 19 19 19 20 21 21 22 23 24 25 26 26 26 27 26
10 11 11 11 10 9 10 10 10 10 10 10 10 10 11 11 12 12 13 13 13 12 12 13 14 16 17 16 15 14 14 13 12 11 10 10 10 9 9 9 7 6 5 5 5 4 4 4 4 4 5 4 3 3 3 3 3 4 5 7 8 9 10 11 12 13 15 16 18 19 20 21 21 21 22 23 24 25 26 26 27 26 26 26 27
9 9 10 10 10 11 12 12 12 12 11 11 11 12 12 13 14 14 15 15 16 15 15 14 15 16 18 17 16 16 16 15 14 13 12 11 10 9 8 7 7 5 5 6 6 6 7 7 7 6 5 4 3 3 3 4 5 7 8 9 9 10 11 12 13 15 16 17 19 20 22 22 23 24 24 24 25 25 25 24 24 25 24 24 25
11 11 11 11 12 12 12 13 13 12 13 13 13 14 15 15 16 17 17 17 18 17 16 16 15 16 17 18 18 18 18 17 17 16 15 13 11 9 8 7 6 6 6 7 9 9 10 9 8 6 4 3 3 4 5 6 7 8 9 9 11 12 13 15 16 17 19 20 21 22 23 24 24 24 23 23 23 23 23 22 23 23 23 23 23
13 13 13 13 13 13 13 13 13 13 14 14 14 14 15 15 17 18 18 18 18 17 17 17 16 16 18 20 21 21 21 20 19 16 14 12 11 9 8 7 7 7 8 9 11 12 10 8 6 5 4 5 5 6 7 8 8 9 11 13 15 16 18 19 20 20 21 21 22 23 23 23 23 23 22 23 23 23 22 22 22 22 22 22 22
15 14 14 14 14 14 13 14 14 14 15 15 15 16 16 17 18 19 19 19 19 19 19 19 18 18 19 21 23 22 21 21 19 15 12 11 10 9 8 8 8 9 10 10 10 10 8 6 5 5 5 6 7 7 8 10 12 14 15 17 18 20 21 22 22 21 21 21 21 22 22 22 22 23 22 23 24 24 23 22 22 22 22 22 22
16 16 15 15 14 14 14 15 15 16 17 17 17 18 18 18 19 19 20 20 19 20 20 20 20 20 20 22 23 21 18 18 19 17 14 13 12 11 10 10 10 10 10 9 8 7 6 5 5 5 6 6 7 8 10 12 14 17 19 20 21 22 23 23 22 21 21 21 21 21 21 21 22 22 23 23 24 24 24 23 22 22 22 22 23
16 15 15 14 14 15 15 15 15 16 16 16 16 17 18 18 18 17 17 17 16 17 19 20 21 21 20 20 22 20 17 19 20 18 17 16 15 13 13 12 11 10 8 6 6 7 5 5 5 5 6 7 8 9 11 13 15 18 20 21 23 23 22 22 22 21 21 21 21 21 21 22 23 24 24 24 24 24 24 23 22 22 22 23 23
14 13 13 14 14 14 14 14 13 14 14 15 15 15 16 17 17 15 13 12 12 15 16 17 17 17 16 16 18 19 20 21 21 20 19 18 17 16 15 12 10 9 6 5 6 6 5 4 5 5 6 7 8 10 12 14 16 18 19 20 22 23 23 22 22 21 21 20 21 22 23 23 24 24 25 25 25 24 24 24 23 22 22 22 23
13 13 13 13 13 12 12 11 12 12 13 13 13 13 13 15 16 15 12 9 8 10 11 10 10 12 14 14 16 18 22 22 21 20 19 19 18 16 13 11 9 7 5 5 5 5 5 4 4 5 6 7 8 10 13 14 16 18 19 20 21 23 23 23 22 22 22 22 23 24 25 25 25 25 25 25 25 24 23 23 22 22 21 21 21
12 11 10 9 9 9 9 10 10 11 11 11 11 12 13 13 15 16 15 13 13 13 13 13 12 12 14 17 18 21 22 21 20 19 20 19 17 13 10 9 9 7 6 5 4 5 5 4 4 5 5 7 9 11 13 15 17 18 19 21 22 23 24 24 23 24 25 26 26 26 26 26 26 25 25 25 24 23 23 23 22 21 21 21 21
9 8 7 6 6 7 7 8 8 9 9 9 9 10 12 13 14 15 15 16 17 18 18 17 17 17 18 21 22 22 21 20 19 19 18 16 14 11 10 10 10 8 7 6 5 5 4 3 3 4 5 6 9 11 13 15 17 18 19 20 22 23 24 25 25 26 26 26 27 27 26 26 26 25 24 24 23 23 23 23 23 23 22 22 22
6 5 4 4 4 4 4 4 5 6 6 6 7 8 10 12 13 14 16 18 21 22 22 22 23 23 22 22 23 23 21 20 18 17 15 14 12 10 9 10 9 9 8 7 6 4 3 3 3 3 5 7 9 12 14 16 17 18 20 21 22 23 24 24 25 25 26 26 26 26 25 25 25 25 24 23 23 23 23 23 23 23 23 23 22
4 3 2 1 1 1 3 4 3 1 1 3 7 10 12 14 16 18 20 21 23 24 24 23 25 27 26 24 23 23 21 18 16 15 14 13 12 10 9 9 9 8 8 7 5 3 3 3 3 3 5 7 10 12 14 17 19 20 21 22 22 23 23 24 24 25 25 25 25 25 25 25 25 25 24 23 24 24 24 24 23 23 23 22 21
5 3 1 1 4 7 8 7 5 5 6 8 11 14 17 18 20 21 22 22 23 23 23 22 23 26 27 25 23 22 20 17 15 15 14 14 13 11 10 9 9 8 8 6 4 3 4 4 3 3 5 7 10 13 15 17 20 21 22 22 22 23 23 24 25 25 25 25 26 26 25 25 25 25 24 24 23 23 23 24 23 23 22 22 21
6 3 1 3 6 7 7 7 7 8 9 10 13 17 20 21 22 22 22 21 22 22 22 21 21 23 24 23 22 20 18 16 15 15 15 15 14 11 10 9 8 8 7 5 4 4 5 4 2 3 6 9 12 14 15 18 21 22 22 21 21 22 23 23 24 25 25 25 26 26 26 26 26 26 25 25 24 24 24 24 24 23 22 22 22
5 2 2 5 6 5 4 5 7 8 9 10 11 15 18 19 20 21 20 20 20 20 19 18 19 19 19 18 17 16 14 14 16 16 16 15 13 11 10 8 7 6 5 4 4 5 4 2 2 5 7 10 13 14 15 19 21 22 22 21 21 21 22 23 24 25 25 25 26 26 27 27 27 26 26 26 25 25 24 24 24 23 22 22 21
4 3 4 6 5 2 3 6 6 6 8 9 9 11 14 16 17 17 17 17 17 16 16 15 15 15 14 13 12 11 11 14 16 17 15 14 12 11 9 8 6 5 4 4 5 5 3 0 3 7 9 11 13 14 16 20 22 22 21 21 20 21 22 23 25 25 25 26 27 27 27 27 27 26 26 25 24 24 23 23 23 22 21 20 20
4 4 5 5 2 1 3 4 3 4 7 8 8 9 10 12 14 14 14 13 13 12 13 12 12 12 12 11 10 11 13 16 17 16 14 13 12 10 9 8 6 5 4 5 6 5 2 2 5 8 10 11 12 13 16 19 21 21 21 20 20 20 22 23 25 26 26 26 28 28 28 28 27 26 26 25 24 24 23 23 22 21 20 19 18
5 5 5 3 1 1 2 2 3 5 6 7 8 7 7 9 10 10 10 10 9 10 11 11 11 12 13 12 12 14 16 18 16 15 13 12 11 9 8 7 6 5 4 5 5 4 2 4 7 8 9 10 10 12 15 18 19 19 20 20 20 20 21 23 25 26 26 26 27 28 28 28 27 26 26 25 24 24 23 22 22 21 19 17 16
7 6 6 6 6 6 6 5 5 5 6 7 9 8 8 9 9 8 9 10 11 12 13 13 14 15 16 17 16 17 18 17 15 13 12 11 9 9 8 7 6 4 4 5 5 3 4 6 7 8 8 9 11 13 15 17 17 17 19 19 19 20 21 22 24 25 25 25 26 27 28 28 27 26 25 25 24 24 23 22 21 20 18 16 14
7 7 7 7 8 8 7 7 7 8 8 9 10 11 11 11 10 11 12 13 14 15 16 16 17 18 19 19 18 17 16 15 13 12 10 8 8 8 7 7 6 5 5 5 4 3 4 5 6 7 9 11 14 15 16 16 16 17 18 18 19 19 20 21 23 23 23 24 25 26 27 27 26 25 25 24 23 23 22 22 21 19 17 15 13
8 7 8 7 7 8 8 9 10 11 11 12 13 14 15 15 15 15 15 16 17 18 18 18 18 18 18 18 17 16 15 13 12 10 8 6 6 7 7 7 6 6 5 5 3 3 4 4 6 8 10 13 15 16 16 16 16 17 17 18 19 19 20 21 22 22 23 23 24 25 26 26 26 25 24 22 22 23 22 21 20 19 17 15 12
9 9 9 9 9 10 11 11 12 13 14 15 16 17 18 18 18 18 17 17 18 18 17 17 17 17 16 16 15 14 13 11 9 8 6 5 5 6 7 6 6 6 6 4 3 3 4 5 7 9 11 13 15 16 16 16 17 17 17 18 19 19 19 21 22 21 22 23 24 24 25 25 24 24 23 22 21 22 21 20 19 18 16 15 12
11 12 12 11 11 12 13 13 14 15 15 16 17 18 18 18 18 18 18 17 17 16 16 15 15 15 15 14 13 12 10 9 8 6 3 2 4 7 7 6 6 6 5 4 3 4 4 6 8 9 11 13 15 16 15 16 17 18 18 18 19 18 19 20 20 20 21 23 25 25 24 24 23 23 22 21 21 21 20 19 18 16 15 13 12
13 13 13 13 13 14 14 15 16 16 17 17 18 18 18 18 18 17 17 16 16 15 14 14 13 13 13 12 11 10 8 7 6 5 3 3 4 6 6 5 5 5 4 4 4 5 6 7 8 9 11 13 15 15 14 15 17 18 18 18 19 18 18 19 20 20 21 23 25 25 24 23 23 23 22 21 21 21 20 18 17 15 13 12 11
15 15 15 15 15 15 15 16 17 17 17 17 18 18 17 17 17 15 15 15 14 14 13 12 11 11 10 10 9 9 7 6 5 3 2 2 3 4 4 4 5 5 5 5 6 7 8 9 9 9 10 12 13 14 13 14 16 17 18 18 18 18 18 18 19 20 21 23 24 25 24 23 23 23 22 21 21 20 19 18 16 15 13 11 9
Wind_Direction
202 202 202 205 205 205 211 212 210 210 208 207 207 206 213 223 223 223 224 223 222 220 218 220 220 221 220 218 217 217 218 219 219 220 216 212 209 195 183 176 170 166 155 142 130 155 174 133 100 69 62 80 66 47 50 55 55 63 65 54 53 50 41 44 43 19 13 12 9 9 5 6 10 9 9 11 14 17 18 16 16 14 15 17 14
198 198 199 207 210 211 216 215 212 212 208 205 210 213 223 232 231 230 231 230 229 226 223 223 227 233 235 232 231 229 227 228 226 226 226 224 225 224 220 214 207 205 204 194 176 176 188 182 168 138 90 101 59 23 37 56 60 64 63 54 47 42 32 30 32 21 3 358 359 358 357 1 4 4 4 4 2 1 1 3 4 4 5 8 11
187 186 185 192 201 205 211 212 210 209 201 198 214 225 230 239 243 242 236 232 231 230 229 229 228 233 239 239 241 239 234 234 234 235 236 235 236 236 235 234 229 226 225 221 211 205 206 203 203 206 199 195 186 62 102 87 73 67 61 49 38 34 25 17 20 18 4 354 352 353 354 356 359 359 357 357 355 352 351 352 350 347 347 348 349
182 179 176 174 181 188 194 197 197 196 194 198 212 222 229 240 251 257 249 240 237 235 235 235 233 236 240 240 242 243 238 235 238 241 244 245 247 248 248 247 245 242 240 238 232 228 227 224 222 225 220 213 210 208 206 195 134 69 56 38 27 24 19 13 12 11 3 353 350 352 353 353 356 356 351 349 349 349 350 349 345 342 341 341 339
183 181 179 175 172 174 178 182 183 185 193 203 210 212 218 228 236 250 257 249 243 239 237 239 241 243 247 249 248 246 241 238 242 249 252 253 254 255 256 255 255 254 252 251 247 242 242 240 236 235 233 225 221 229 239 234 237 284 346 1 7 9 9 7 4 3 1 356 351 350 349 350 353 356 354 350 347 344 343 343 343 341 337 335 336
183 185 186 183 179 179 180 180 178 182 193 204 213 216 217 222 226 234 251 251 239 233 235 241 245 246 251 257 259 256 249 242 244 252 256 256 257 258 258 258 260 258 256 256 254 251 250 249 245 242 242 239 232 232 238 242 248 262 279 300 335 354 357 359 358 354 354 356 353 349 348 349 350 352 354 354 351 347 343 338 336 338 337 335 335
179 186 192 193 192 192 193 191 190 198 209 214 226 232 233 237 238 239 246 250 237 229 232 239 243 247 256 263 263 262 256 248 249 255 257 257 258 258 258 259 260 261 261 261 259 256 254 252 248 245 246 248 245 241 238 238 242 253 258 265 305 330 334 342 350 348 348 352 351 348 347 347 348 348 349 350 351 351 350 344 336 335 337 337 335
175 186 197 203 204 204 206 207 208 225 238 237 240 245 241 241 245 243 243 245 241 236 237 240 243 250 261 264 260 257 254 251 255 261 261 260 259 258 258 258 259 262 265 265 263 259 256 252 248 246 244 245 247 247 245 238 232 233 239 250 268 284 298 318 337 341 342 345 345 344 341 340 343 345 345 349 351 349 351 349 338 333 333 333 333
173 183 195 203 204 203 210 211 210 232 246 250 253 252 237 229 233 237 239 243 248 249 247 246 248 251 256 257 255 254 255 257 260 263 263 263 261 261 261 258 258 262 266 265 262 260 258 255 251 247 244 242 242 246 249 245 238 233 231 234 245 254 262 287 318 324 327 334 336 335 333 334 340 344 344 349 351 342 339 339 334 331 331 328 329
151 154 155 161 162 165 182 186 182 202 219 221 224 228 221 217 222 229 236 244 254 256 251 249 248 246 247 249 252 256 261 264 267 268 267 268 268 267 267 265 266 269 271 267 263 261 260 259 255 250 246 243 240 242 245 242 238 238 238 235 241 258 267 272 282 290 302 315 321 325 325 326 333 340 339 339 338 332 332 334 331 330 332 330 328
117 113 103 96 114 132 144 159 168 177 182 175 171 172 176 182 186 183 185 197 213 219 226 230 231 234 241 249 257 267 273 275 278 277 274 273 273 272 272 273 274 275 274 272 270 269 266 263 260 255 248 242 238 238 237 232 229 231 233 233 248 273 286 286 281 275 278 287 296 305 311 316 323 329 328 326 327 327 328 330 329 328 332 331 322
113 107 99 93 97 105 111 121 129 130 127 123 121 119 116 114 108 101 98 93 88 92 101 121 159 197 244 273 287 293 293 293 292 287 282 278 274 273 273 274 275 276 276 276 276 275 271 267 263 257 249 242 237 232 227 223 224 226 227 234 255 276 289 294 290 283 278 272 276 287 296 305 313 317 317 318 320 321 322 323 324 324 322 316 306
128 121 110 105 101 95 93 93 100 112 117 114 111 109 105 100 94 86 81 79 75 74 74 72 66 49 24 358 340 331 323 318 308 296 290 285 279 275 273 273 275 277 279 280 278 275 272 268 264 257 247 239 232 226 221 219 219 220 228 244 264 280 290 294 292 286 280 275 279 291 299 302 306 308 310 312 313 315 316 315 316 316 311 306 301
130 131 126 122 116 110 98 82 86 105 114 111 105 98 87 82 79 71 65 61 57 57 53 38 23 6 352 344 340 337 335 331 326 316 303 289 282 279 276 275 276 278 281 282 280 278 274 268 263 254 242 232 224 217 213 213 213 219 238 256 268 278 284 285 283 279 280 288 294 299 301 301 303 305 305 307 309 310 311 311 310 309 304 302 301
111 119 129 130 121 120 120 92 90 118 129 120 101 76 56 42 35 27 24 24 21 19 9 354 348 343 339 337 334 333 334 331 329 329 321 304 290 282 277 273 271 273 278 279 279 277 272 268 261 249 235 222 211 206 207 211 217 227 239 252 267 277 277 273 273 277 287 296 298 299 300 300 301 302 301 304 306 307 307 306 305 304 303 302 302
95 99 102 100 96 97 100 101 103 111 122 115 71 40 19 8 0 351 350 352 348 346 341 336 333 332 330 329 327 327 329 328 328 328 323 315 304 291 280 271 264 264 267 270 273 272 268 264 254 237 220 205 198 200 207 212 216 223 236 258 273 274 271 270 274 281 289 294 295 295 296 296 298 299 300 302 304 306 306 304 305 308 308 306 305
81 86 93 88 80 79 82 85 89 89 84 67 42 18 3 357 352 345 339 333 327 323 322 320 319 320 322 323 322 322 323 326 330 330 326 320 312 299 283 269 261 258 259 263 267 266 259 248 233 214 200 193 193 197 203 211 220 236 256 266 263 260 263 272 280 286 290 292 293 294 295 295 296 297 299 301 302 306 306 306 312 316 312 308 306
70 67 85 91 83 78 75 67 67 62 48 38 29 14 2 356 349 341 331 323 316 310 308 310 312 316 321 322 321 321 323 327 331 333 332 325 316 303 280 259 247 241 239 236 235 231 209 197 199 197 190 187 190 196 207 224 240 252 257 254 252 257 265 274 282 286 288 288 289 290 292 294 295 295 298 300 300 300 300 302 310 309 303 299 297
239 254 164 133 133 135 125 77 34 42 40 32 24 10 -0 358 354 346 339 334 326 314 305 303 305 306 310 312 314 319 324 329 332 334 334 327 318 304 270 241 218 200 193 182 172 171 168 168 176 187 190 190 195 208 225 242 249 248 251 258 265 272 278 283 286 287 288 288 289 291 293 295 297 299 301 301 299 297 293 294 300 299 296 293 292
243 236 230 202 193 203 205 205 210 149 78 24 10 355 343 342 340 334 331 329 327 321 309 299 296 295 296 299 304 311 317 323 327 331 331 324 314 295 251 226 202 183 176 171 164 160 159 162 167 177 190 197 207 225 240 249 254 258 267 278 285 287 287 288 288 289 292 294 296 298 300 302 303 303 303 301 298 296 292 288 291 295 296 294 290
241 236 236 229 219 215 210 210 212 213 234 275 306 317 320 322 322 319 318 316 313 308 299 291 289 287 286 287 291 298 305 311 316 322 326 323 309 276 239 220 203 187 177 172 170 165 159 156 153 151 163 181 201 234 250 259 269 278 284 288 290 288 288 289 291 295 298 301 302 303 304 306 306 305 305 302 299 298 294 289 288 292 295 295 293
238 236 235 232 226 219 216 219 224 232 246 260 276 292 303 308 309 311 314 314 310 299 288 283 280 277 278 279 281 285 289 292 298 305 310 309 291 251 227 212 201 197 189 177 170 165 158 156 156 157 168 191 227 265 276 284 290 293 292 289 286 285 289 295 300 302 303 305 307 308 308 309 309 307 307 305 302 301 299 295 293 290 290 292 293
234 234 232 231 227 223 224 229 234 241 249 257 264 271 276 281 287 295 302 310 312 298 278 271 268 267 269 269 268 266 262 261 263 267 274 274 249 222 211 201 197 202 199 183 172 165 159 159 174 196 225 258 279 287 293 301 305 305 301 295 290 290 295 300 304 306 308 309 309 308 309 310 309 308 307 306 304 303 301 298 295 292 290 291 292
230 226 222 218 217 219 223 226 231 235 241 248 253 252 251 252 256 269 282 288 288 281 270 261 258 258 260 260 256 246 235 229 224 217 216 218 208 200 198 193 192 196 191 174 166 165 164 167 193 243 270 282 292 301 313 326 330 327 323 313 307 305 307 309 312 312 312 311 310 309 309 309 308 308 307 305 303 302 299 296 293 292 292 292 291
213 208 206 207 211 215 216 216 220 224 229 236 241 243 244 247 252 261 270 272 270 268 263 257 253 251 252 252 244 231 217 208 203 198 197 202 200 195 193 190 187 187 176 157 153 158 166 183 206 214 194 95 92 72 45 34 15 354 336 322 315 312 311 311 313 313 313 313 312 310 310 310 309 307 306 305 303 300 298 295 292 292 292 293 293
215 210 210 212 216 219 221 223 226 229 233 237 241 246 249 253 258 261 263 264 263 259 257 255 251 248 248 244 231 216 204 199 196 192 192 195 192 186 183 179 174 173 163 151 151 157 157 155 147 130 118 108 97 75 51 32 3 334 323 319 317 316 316 317 318 318 317 316 314 312 311 311 309 307 305 303 302 300 298 296 295 294 295 295 296
250 240 230 224 223 225 229 233 236 240 245 249 251 255 255 256 257 256 256 256 255 252 250 248 245 244 244 237 221 207 199 195 193 191 189 186 180 175 174 170 164 164 161 155 152 150 143 137 130 123 112 96 74 47 20 356 340 333 332 331 329 329 328 327 325 323 321 319 317 314 313 311 309 307 305 303 302 300 299 298 297 296 297 298 296
251 244 234 228 229 231 236 241 244 247 251 252 253 253 251 251 252 251 251 251 249 247 244 240 241 244 243 232 215 200 195 197 199 198 195 190 184 179 176 173 169 167 164 157 148 142 140 135 125 113 93 63 39 12 355 348 346 345 343 341 339 336 333 329 325 322 321 320 318 315 313 312 310 309 307 305 303 302 301 301 298 296 297 297 293
241 234 229 228 232 237 242 247 251 254 256 257 256 254 252 250 250 251 251 250 249 248 245 244 247 249 246 236 217 202 199 203 203 200 196 193 190 188 180 176 174 165 157 154 148 143 140 131 111 88 59 34 18 7 2 359 356 352 347 344 340 336 332 329 326 324 322 321 319 316 313 312 311 310 307 304 302 302 302 300 297 295 294 291 286
237 232 230 233 238 243 248 252 256 260 262 264 264 263 260 256 254 252 251 247 246 245 247 251 255 254 251 241 226 216 216 211 198 188 186 183 180 180 175 170 167 158 150 149 148 142 132 114 89 67 46 29 19 15 12 4 357 352 347 344 341 338 335 333 333 331 327 323 320 315 312 310 308 307 304 301 300 300 300 297 294 291 287 283 281
233 232 233 238 243 247 252 256 259 262 264 266 267 267 265 262 259 258 256 253 250 248 249 252 253 251 249 239 224 217 217 206 189 179 178 174 169 167 163 157 153 149 147 148 145 130 113 102 89 69 47 33 23 16 10 2 356 350 346 343 342 340 338 336 335 333 329 325 320 315 311 308 305 303 301 298 297 297 296 293 290 285 281 279 279
232 234 238 243 248 253 256 259 263 267 269 270 268 266 264 259 255 256 260 261 256 250 246 246 245 244 243 235 221 206 193 185 180 173 169 167 163 159 154 150 147 146 150 157 142 121 109 104 93 68 41 30 23 13 5 357 352 349 347 343 341 339 336 334 333 330 327 323 319 314 311 307 303 300 298 296 295 293 292 290 287 283 281 280 279
241 247 252 254 255 258 260 263 268 271 272 272 269 264 260 255 248 245 251 254 249 241 235 235 238 236 228 222 217 200 179 171 170 167 164 163 159 154 150 147 144 146 156 161 142 124 117 106 83 58 38 29 18 5 358 354 351 351 350 346 341 339 337 334 330 326 322 320 316 311 307 304 301 298 295 294 292 290 288 287 286 284 281 278 277
256 258 259 258 257 261 266 268 272 274 274 276 274 265 260 256 247 235 225 215 207 204 197 193 204 209 199 195 195 183 168 163 164 163 162 160 158 156 153 148 144 148 156 155 139 129 126 109 77 56 39 25 9 358 356 356 355 354 351 347 342 338 334 331 327 324 322 320 316 310 307 303 300 296 294 292 291 289 287 286 285 282 279 277 277
263 261 261 262 263 267 271 274 278 282 282 282 278 266 256 249 239 225 213 195 171 155 146 148 161 177 177 170 168 165 161 159 160 161 161 162 164 164 161 154 151 154 154 148 139 134 128 107 75 56 33 13 5 1 360 359 357 354 349 343 337 332 330 330 330 329 327 321 315 311 307 304 301 297 294 292 290 289 287 286 285 283 281 280 280
263 262 260 263 265 267 276 284 288 291 289 286 278 261 244 233 224 214 201 182 160 143 136 138 146 154 158 156 154 154 152 151 153 157 160 165 170 172 169 164 161 161 159 154 150 143 128 100 74 56 28 11 9 7 2 360 356 349 342 336 331 331 333 333 334 334 329 320 314 311 309 306 304 301 298 295 292 291 289 288 287 285 283 282 280
253 251 241 248 263 274 294 308 306 300 294 279 257 233 214 205 200 189 172 157 145 137 134 136 138 139 142 144 144 143 143 144 148 153 156 159 162 167 172 173 169 167 165 160 157 151 131 106 91 58 28 17 13 7 1 356 349 342 338 336 336 336 335 333 333 333 327 318 314 313 311 310 309 308 304 299 296 295 293 291 289 287 284 283 280
217 211 206 239 293 59 56 43 33 22 201 196 194 186 176 169 165 157 147 140 135 131 131 135 137 137 138 140 142 143 142 143 146 150 153 158 162 165 169 170 167 166 164 160 156 156 140 124 105 62 30 15 7 359 352 347 342 339 339 340 341 340 336 333 335 336 329 320 317 317 316 315 314 312 309 303 299 297 296 293 291 287 285 284 280
177 163 140 107 102 93 77 63 67 95 120 138 147 149 146 142 138 135 132 131 130 132 135 139 141 142 143 145 147 148 147 148 153 158 161 164 167 167 165 162 160 162 161 154 151 154 146 131 101 49 21 5 355 347 341 340 341 342 342 341 340 339 336 335 336 335 330 325 323 323 321 319 318 317 313 308 303 301 299 296 293 289 286 284 281
169 163 149 133 120 104 81 69 78 90 100 113 126 131 131 130 129 130 132 133 135 140 145 148 147 147 148 151 153 155 155 157 161 165 165 163 164 165 163 162 161 160 155 147 146 149 143 127 73 21 6 354 344 337 337 341 343 343 342 341 338 336 335 335 335 333 331 328 327 326 325 324 322 320 317 314 312 309 305 301 298 295 291 288 286
158 155 160 151 137 116 70 47 57 75 88 99 113 123 127 129 132 135 139 141 143 147 149 149 148 149 152 156 160 164 165 164 164 166 165 164 164 163 159 159 159 155 150 147 149 149 143 115 19 2 353 343 335 333 337 342 343 342 342 342 340 337 336 336 336 335 333 332 331 329 328 327 325 321 319 318 318 316 312 307 305 302 298 295 291
133 127 147 153 147 124 20 6 19 68 97 104 113 125 131 135 138 141 143 144 145 147 147 145 149 157 164 169 174 180 180 173 168 165 163 162 162 159 155 156 154 145 141 148 152 152 153 50 355 349 340 333 332 336 340 341 342 342 342 342 341 339 338 338 339 339 338 337 337 336 333 330 327 324 322 322 321 320 317 314 312 309 306 302 297
143 153 160 163 172 310 342 353 27 105 117 117 121 127 133 135 136 138 140 141 144 149 153 155 162 171 175 179 185 187 180 172 167 164 161 161 160 157 156 156 150 138 138 149 155 162 188 320 337 335 331 330 334 338 339 340 341 341 341 341 341 342 341 341 341 342 341 341 342 342 339 334 331 328 328 328 327 325 324 323 321 318 315 312 307
149 156 161 166 154 65 38 56 112 134 140 142 141 140 139 140 139 140 144 149 155 162 166 170 172 171 167 168 171 170 166 163 161 161 159 159 158 158 160 159 153 148 153 162 167 185 263 316 326 327 327 329 334 338 339 341 341 341 341 340 341 343 345 345 344 344 344 343 344 344 341 337 334 332 332 333 333 331 330 330 329 326 324 324 322
141 139 140 136 123 110 98 98 117 133 148 162 167 167 163 158 154 152 155 158 160 160 161 162 162 159 156 155 156 157 156 156 157 157 156 157 160 162 164 162 161 170 185 189 195 228 294 319 323 324 326 331 338 343 344 343 342 343 343 342 342 345 347 347 345 346 346 345 344 344 343 339 337 335 335 337 338 335 334 336 336 334 333 334 333
139 138 142 138 128 119 113 113 121 126 131 142 153 157 157 157 153 148 147 148 148 148 147 147 148 149 149 149 151 153 153 152 152 151 150 154 162 167 169 172 179 191 196 198 214 265 311 325 324 325 331 337 343 347 346 343 342 344 345 344 344 344 345 345 344 346 347 345 345 346 345 342 340 340 341 342 342 342 341 342 343 344 343 344 346
140 142 147 144 135 129 126 126 127 126 124 125 129 133 136 139 139 137 138 140 140 140 141 142 143 144 145 147 149 150 149 149 149 147 144 148 160 170 178 185 191 195 198 208 240 289 315 322 322 326 334 340 345 347 347 346 346 346 347 347 345 344 343 343 343 345 347 346 346 347 347 346 345 344 345 345 346 347 348 348 349 352 353 353 358
144 144 144 141 137 134 133 132 131 127 123 122 122 123 125 127 129 130 132 134 135 136 138 140 141 143 145 146 148 149 149 148 146 144 142 145 161 174 185 193 193 194 203 222 259 295 310 313 317 324 333 341 345 347 347 348 349 350 350 349 348 346 344 343 344 346 348 349 349 349 350 350 349 348 348 350 351 352 352 352 353 356 358 359 4
145 143 141 140 138 136 134 132 129 126 124 124 122 121 121 124 126 127 130 131 132 134 137 139 140 143 145 146 147 148 148 147 146 144 137 135 158 170 179 188 192 198 213 236 263 285 297 304 312 322 332 341 344 346 348 351 353 355 354 352 349 347 346 346 347 349 351 352 354 355 354 354 354 354 354 355 356 355 356 356 356 358 -0 2 7
140 139 138 136 134 131 129 128 126 124 125 126 124 122 122 123 124 126 128 130 130 131 133 135 138 141 144 147 149 150 150 146 141 132 93 73 131 162 178 191 199 211 232 251 264 281 293 300 309 322 333 340 343 344 348 354 357 359 359 355 351 348 346 347 350 353 354 356 359 -0 360 360 1 0 -0 1 1 359 359 360 0 1 2 4 7
132 130 129 128 126 125 124 124 123 123 124 125 125 124 125 125 125 127 129 130 130 130 131 133 135 138 141 144 147 149 148 142 134 125 94 86 129 162 188 204 214 230 249 258 266 281 292 297 308 322 332 337 340 345 351 357 1 2 3 -0 355 351 349 349 351 354 357 358 1 3 4 5 7 7 6 6 5 3 2 4 7 8 8 7 9